Location: Fuller Park
(33.8686°N, 117.9781°W)
Time: 02:18:11
(UTC+00:00)

H-2A R/B - Pass Details

Date: 03 August 2024
Orbit: 731 x 832 km, 98.2° (Epoch: 08 September)

Event Time Altitude Azimuth Distance (km) Brightness Sun altitude
Rises 12:17:19 0° 8° (N) 3,165 5.8 -9.9°
Reaches altitude 10° 12:19:36 10° 5° (N) 2,245 4.9 -9.5°
Maximum altitude 12:24:27 62° 285° (WNW) 839 2.0 -8.6°
Drops below altitude 10° 12:29:23 10° 206° (SSW) 2,277 4.0 -7.7°
Sets 12:31:43 0° 202° (SSW) 3,213 4.8 -7.3°
Enters shadow 12:31:43 - 202° (SSW) 3,214 4.8 -7.3°
